This is the latest recevied weather packets stored in our database for station/object N4YH-13. If no packets are shown the sender has not sent any weather packets the latest 10 day(s).
| Time | Temp. | Humidity | Pressure | Rain* | Wind** | Luminosity | Snow |
|---|---|---|---|---|---|---|---|
| 1777912444 | 21.67° C | 56% | 1014.4 hPa | 0 mm | - | - | - |
| 1777912324 | 21.67° C | 58% | 1014.6 hPa | 0 mm | - | - | - |
| 1777912203 | 21.67° C | 56% | 1014.6 hPa | 0 mm | - | - | - |
| 1777912083 | 21.67° C | 57% | 1014.6 hPa | 0 mm | - | - | - |
| 1777911964 | 21.67° C | 54% | 1014.6 hPa | 0 mm | - | - | - |
| 1777911844 | 21.11° C | 54% | 1014.6 hPa | 0 mm | - | - | - |
| 1777911724 | 21.11° C | 56% | 1014.6 hPa | 0 mm | - | - | - |
| 1777911603 | 21.11° C | 59% | 1014.6 hPa | 0 mm | - | - | - |
| 1777911483 | 20.56° C | 61% | 1014.8 hPa | 0 mm | - | - | - |
| 1777911363 | 20.56° C | 57% | 1014.8 hPa | 0 mm | - | - | - |
| 1777911243 | 20.56° C | 57% | 1014.8 hPa | 0 mm | - | - | - |
| 1777911123 | 20° C | 59% | 1014.8 hPa | 0 mm | - | - | - |
| 1777911004 | 20° C | 58% | 1014.7 hPa | 0 mm | - | - | - |
| 1777910884 | 20° C | 61% | 1014.8 hPa | 0 mm | - | - | - |
| 1777910764 | 20° C | 63% | 1014.7 hPa | 0 mm | - | - | - |
| 1777910644 | 19.44° C | 63% | 1014.7 hPa | 0 mm | - | - | - |
| 1777910523 | 19.44° C | 64% | 1015 hPa | 0 mm | - | - | - |
| 1777910403 | 18.89° C | 66% | 1015 hPa | 0 mm | - | - | - |
| 1777910283 | 18.89° C | 65% | 1014.8 hPa | 0 mm | - | - | - |
| 1777910163 | 18.33° C | 63% | 1014.8 hPa | 0 mm | - | - | - |
| 1777910044 | 17.78° C | 64% | 1014.8 hPa | 0 mm | - | - | - |
| 1777909924 | 17.78° C | 66% | 1014.8 hPa | 0 mm | - | - | - |
| 1777909804 | 17.78° C | 65% | 1014.8 hPa | 0 mm | - | - | - |
| 1777909684 | 17.78° C | 63% | 1014.9 hPa | 0 mm | - | - | - |
| 1777909563 | 17.78° C | 63% | 1014.9 hPa | 0 mm | - | - | - |
* Rain latest hour (hover to see other rain measurements)
** Current wind speed in m/s (hover to see current wind gust speed)